Location: 5810 Zion Rd, Cleves, OH 45002, USA
(39.1922°N, 84.7113°W)
Time: 23:38:49
(UTC-05:00)

Courier 1B Rocket - Pass Details

Date: 08 December 2019
Orbit: 920 x 1202 km, 28.2° (Epoch: 20 January)

Event Time Altitude Azimuth Distance (km) Brightness Sun altitude
Rises 10:30:30 0° 255° (WSW) 3,626 7.8 22.0°
Reaches altitude 10° 10:33:31 10° 244° (WSW) 2,649 7.3 22.3°
Maximum altitude 10:38:49 28° 187° (S) 1,640 7.4 22.8°
Drops below altitude 10° 10:44:01 10° 130° (SE) 2,601 8.6 23.2°
Sets 10:46:58 0° 119° (ESE) 3,550 8.8 23.5°
